Location: Unspecified
(0.0000°N, 0.0000°E)
Time: 22:29:03
(UTC+01:00)

CZ-4B DEB - Visible Passes

Search period start: 24 November 2014 00:00
Search period end: 04 December 2014 00:00
Orbit: 510 x 526 km, 97.5° (Epoch: 23 November)

Date Brightness Start Highest point End Pass type
(mag) Time Alt. Az. Time Alt. Az. Time Alt. Az.
24 Nov 3.0 19:39:43 10° SSE 19:43:28 74° ENE 19:47:11 10° N visible
25 Nov 3.5 19:25:50 10° SSE 19:29:23 41° E 19:32:54 10° N visible
26 Nov 4.3 19:12:10 10° SE 19:15:15 24° E 19:18:18 10° NNE visible
27 Nov 6.3 20:32:39 10° SW 20:34:53 15° WSW 20:37:08 10° WNW visible
28 Nov 5.5 20:17:33 10° SSW 20:20:40 25° WSW 20:23:46 10° NW visible
29 Nov 4.4 20:02:50 10° S 20:06:24 43° WSW 20:09:56 10° NNW visible
30 Nov 3.3 19:48:20 10° S 19:52:05 78° W 19:55:47 10° NNW visible
01 Dec 3.2 19:34:01 10° SSE 19:37:42 57° E 19:41:21 10° N visible
02 Dec 3.9 19:19:55 10° SE 19:23:17 32° E 19:26:37 10° NNE visible
03 Dec 6.5 20:41:18 10° WSW 20:42:36 12° WSW 20:43:54 10° W visible
